• In Portugal
  • List of Countries
  • For 7 days
  • Water Temperature
  • Satellite Maps
  • Weather Map
  • Weather Widgets
  • user-avatar
    Login

    Hourly Weather Santa Fe

    Today, 16 December, Saturday

    Time Temperature Precipitation Wind Pressure Humidity
    00:00 +29°C° 0 mm 3 mps 752 mmHg 33%
    01:00 +28°C° 0 mm 3 mps 752 mmHg 36%
    02:00 +29°C° 0 mm 4 mps 751 mmHg 34%
    03:00 +27°C° 0.3 mm 3 mps 751 mmHg 42%
    04:00 +26°C° 0.3 mm 3 mps 751 mmHg 50%
    05:00 +25°C° 0.3 mm 3 mps 751 mmHg 58%
    06:00 +26°C° 0.3 mm 3 mps 752 mmHg 56%
    07:00 +28°C° 0.3 mm 4 mps 752 mmHg 54%
    08:00 +30°C° 0 mm 5 mps 751 mmHg 54%
    09:00 +34°C° 0.4 mm 5 mps 751 mmHg 46%
    10:00 +38°C° 0.4 mm 6 mps 750 mmHg 39%
    11:00 +41°C° 0.4 mm 6 mps 750 mmHg 31%
    12:00 +44°C° 0 mm 6 mps 749 mmHg 28%
    13:00 +45°C° 0 mm 6 mps 748 mmHg 25%
    14:00 +46°C° 0 mm 6 mps 747 mmHg 21%
    15:00 +46°C° 0 mm 6 mps 746 mmHg 21%
    16:00 +46°C° 0 mm 6 mps 745 mmHg 21%
    17:00 +46°C° 0 mm 6 mps 745 mmHg 21%
    18:00 +43°C° 0 mm 5 mps 745 mmHg 24%
    19:00 +41°C° 0 mm 4 mps 744 mmHg 26%
    20:00 +38°C° 0 mm 4 mps 744 mmHg 29%
    21:00 +38°C° 0.1 mm 4 mps 744 mmHg 30%
    22:00 +39°C° 0.1 mm 5 mps 744 mmHg 30%
    23:00 +37°C° 0.1 mm 5 mps 745 mmHg 31%

    Tomorrow, 17 December, Sunday

    Time Temperature Precipitation Wind Pressure Humidity
    00:00 +34°C° 1.7 mm 5 mps 746 mmHg 49%
    01:00 +30°C° 1.7 mm 5 mps 747 mmHg 67%
    02:00 +27°C° 1.7 mm 5 mps 749 mmHg 85%
    03:00 +26°C° 0.6 mm 6 mps 750 mmHg 85%
    04:00 +26°C° 0.6 mm 6 mps 752 mmHg 86%
    05:00 +24°C° 0.6 mm 7 mps 753 mmHg 86%
    06:00 +23°C° 0.7 mm 7 mps 755 mmHg 81%
    07:00 +22°C° 0.7 mm 7 mps 756 mmHg 76%
    08:00 +21°C° 0.7 mm 7 mps 758 mmHg 71%
    09:00 +24°C° 0.1 mm 7 mps 758 mmHg 57%
    10:00 +27°C° 0.1 mm 6 mps 759 mmHg 42%
    11:00 +29°C° 0.1 mm 6 mps 760 mmHg 28%
    12:00 +30°C° 0 mm 6 mps 760 mmHg 26%
    13:00 +32°C° 0 mm 6 mps 760 mmHg 23%
    14:00 +34°C° 0 mm 6 mps 759 mmHg 20%
    15:00 +33°C° 0 mm 6 mps 759 mmHg 22%
    16:00 +33°C° 0 mm 6 mps 759 mmHg 23%
    17:00 +32°C° 0 mm 6 mps 759 mmHg 25%
    18:00 +29°C° 0 mm 6 mps 759 mmHg 29%
    19:00 +27°C° 0 mm 5 mps 760 mmHg 33%
    20:00 +25°C° 0 mm 5 mps 760 mmHg 37%
    21:00 +23°C° 0 mm 5 mps 761 mmHg 44%
    22:00 +21°C° 0 mm 5 mps 762 mmHg 50%
    23:00 +20°C° 0 mm 5 mps 763 mmHg 56%

    Day after tomorrow, 18 December, Monday

    Time Temperature Precipitation Wind Pressure Humidity
    00:00 +19°C° 0 mm 5 mps 763 mmHg 57%
    01:00 +18°C° 0 mm 4 mps 763 mmHg 57%
    02:00 +17°C° 0 mm 4 mps 763 mmHg 57%
    03:00 +17°C° 0 mm 4 mps 763 mmHg 56%
    04:00 +15°C° 0 mm 4 mps 763 mmHg 55%
    05:00 +14°C° 0 mm 4 mps 763 mmHg 55%
    06:00 +17°C° 0 mm 4 mps 763 mmHg 50%
    07:00 +19°C° 0 mm 4 mps 763 mmHg 46%
    08:00 +20°C° 0 mm 5 mps 763 mmHg 41%
    09:00 +23°C° 0 mm 4 mps 763 mmHg 36%
    10:00 +26°C° 0 mm 4 mps 762 mmHg 31%
    11:00 +29°C° 0 mm 4 mps 762 mmHg 25%
    12:00 +30°C° 0 mm 4 mps 761 mmHg 24%
    13:00 +33°C° 0 mm 3 mps 760 mmHg 22%
    14:00 +34°C° 0 mm 3 mps 759 mmHg 20%
    15:00 +34°C° 0 mm 3 mps 759 mmHg 20%
    16:00 +35°C° 0 mm 4 mps 758 mmHg 21%
    17:00 +35°C° 0 mm 4 mps 757 mmHg 21%
    18:00 +33°C° 0 mm 4 mps 757 mmHg 26%
    19:00 +30°C° 0 mm 4 mps 758 mmHg 31%
    20:00 +28°C° 0 mm 5 mps 758 mmHg 35%
    21:00 +27°C° 0 mm 4 mps 758 mmHg 39%
    22:00 +26°C° 0 mm 4 mps 758 mmHg 43%
    23:00 +25°C° 0 mm 4 mps 759 mmHg 46%

    19 December, Tuesday

    Time Temperature Precipitation Wind Pressure Humidity
    00:00 +25°C° 0.1 mm 4 mps 759 mmHg 53%
    01:00 +23°C° 0.1 mm 4 mps 758 mmHg 59%
    02:00 +22°C° 0.1 mm 4 mps 758 mmHg 65%
    03:00 +22°C° 0.5 mm 4 mps 758 mmHg 71%
    04:00 +21°C° 0.5 mm 4 mps 758 mmHg 77%
    05:00 +21°C° 0.5 mm 3 mps 759 mmHg 83%
    06:00 +21°C° 0.7 mm 3 mps 759 mmHg 84%
    07:00 +21°C° 0.7 mm 4 mps 760 mmHg 85%
    08:00 +21°C° 0.7 mm 4 mps 760 mmHg 86%
    09:00 +22°C° 0.6 mm 4 mps 760 mmHg 85%
    10:00 +22°C° 0.6 mm 4 mps 760 mmHg 84%
    11:00 +22°C° 0.6 mm 4 mps 760 mmHg 83%
    12:00 +23°C° 0.5 mm 4 mps 760 mmHg 82%
    13:00 +23°C° 0.5 mm 5 mps 759 mmHg 81%
    14:00 +23°C° 0.5 mm 5 mps 759 mmHg 80%
    15:00 +23°C° 0.7 mm 5 mps 759 mmHg 83%
    16:00 +22°C° 0.7 mm 5 mps 758 mmHg 85%
    17:00 +21°C° 0.7 mm 5 mps 758 mmHg 88%
    18:00 +21°C° 0.1 mm 5 mps 758 mmHg 89%
    19:00 +20°C° 0.1 mm 4 mps 758 mmHg 89%
    20:00 +20°C° 0.1 mm 3 mps 758 mmHg 90%
    21:00 +20°C° 0 mm 3 mps 758 mmHg 91%
    22:00 +20°C° 0 mm 3 mps 758 mmHg 93%
    23:00 +19°C° 0 mm 2 mps 758 mmHg 94%

    20 December, Wednesday

    Time Temperature Precipitation Wind Pressure Humidity
    00:00 +19°C° 0 mm 2 mps 758 mmHg 95%
    01:00 +19°C° 0 mm 2 mps 757 mmHg 96%
    02:00 +19°C° 0 mm 2 mps 757 mmHg 97%
    03:00 +19°C° 0.1 mm 2 mps 757 mmHg 97%
    04:00 +19°C° 0.1 mm 2 mps 757 mmHg 97%
    05:00 +19°C° 0.1 mm 2 mps 757 mmHg 97%
    06:00 +21°C° 0 mm 3 mps 757 mmHg 90%
    07:00 +24°C° 0 mm 3 mps 757 mmHg 83%
    08:00 +26°C° 0 mm 3 mps 757 mmHg 76%
    09:00 +28°C° 0 mm 3 mps 756 mmHg 67%
    10:00 +31°C° 0 mm 3 mps 756 mmHg 58%
    11:00 +34°C° 0 mm 3 mps 755 mmHg 49%
    12:00 +35°C° 0 mm 2 mps 754 mmHg 45%
    13:00 +36°C° 0 mm 2 mps 754 mmHg 42%
    14:00 +37°C° 0 mm 2 mps 753 mmHg 39%
    15:00 +37°C° 0 mm 2 mps 752 mmHg 39%
    16:00 +37°C° 0 mm 2 mps 752 mmHg 38%
    17:00 +37°C° 0 mm 3 mps 751 mmHg 38%
    18:00 +35°C° 0 mm 3 mps 751 mmHg 43%
    19:00 +33°C° 0 mm 3 mps 752 mmHg 49%
    20:00 +30°C° 0 mm 3 mps 752 mmHg 54%
    21:00 +30°C° 0 mm 4 mps 752 mmHg 57%
    22:00 +29°C° 0 mm 4 mps 752 mmHg 59%
    23:00 +28°C° 0 mm 4 mps 752 mmHg 62%

    21 December, Thursday

    Time Temperature Precipitation Wind Pressure Humidity
    00:00 +28°C° 0 mm 4 mps 752 mmHg 65%
    01:00 +27°C° 0 mm 4 mps 751 mmHg 67%
    02:00 +27°C° 0 mm 4 mps 751 mmHg 70%
    03:00 +26°C° 0 mm 4 mps 751 mmHg 72%
    04:00 +26°C° 0 mm 4 mps 752 mmHg 74%
    05:00 +26°C° 0 mm 4 mps 752 mmHg 76%
    06:00 +28°C° 0 mm 4 mps 752 mmHg 70%
    07:00 +30°C° 0 mm 4 mps 753 mmHg 64%
    08:00 +33°C° 0 mm 4 mps 753 mmHg 57%
    09:00 +35°C° 0 mm 4 mps 753 mmHg 51%
    10:00 +37°C° 0 mm 3 mps 753 mmHg 45%
    11:00 +39°C° 0 mm 3 mps 752 mmHg 39%
    12:00 +39°C° 0 mm 3 mps 752 mmHg 38%
    13:00 +39°C° 0 mm 2 mps 751 mmHg 36%
    14:00 +39°C° 0 mm 2 mps 751 mmHg 35%
    15:00 +39°C° 0 mm 2 mps 750 mmHg 35%
    16:00 +39°C° 0 mm 1 mps 750 mmHg 35%
    17:00 +39°C° 0 mm 1 mps 750 mmHg 35%
    18:00 +36°C° 0 mm 1 mps 750 mmHg 38%
    19:00 +35°C° 0 mm 2 mps 750 mmHg 41%
    20:00 +34°C° 0 mm 2 mps 751 mmHg 44%
    21:00 +32°C° 0 mm 2 mps 751 mmHg 46%
    22:00 +31°C° 0 mm 3 mps 751 mmHg 47%
    23:00 +31°C° 0 mm 3 mps 751 mmHg 49%
    Show more